The Dilly Family's Weather Page
McMurray, PA 15317   Weather
Using a La Crosse Technology Model 2315 Weather Station

  Local Radar

Local Radar

  Graphs, Details
Graphs and Gauges
Detailed Weather
Detailed Reports
Mobile Version of This Page
Brief Version of This Page
  Maps
Temperature
Heat Index
Windchill
Humidity
Radar
Dew Point
Wind
Visibility
Visible Satellite
Satellite
Fronts
Snow Depth
Jet Stream
Flight Rules
  Forecast Maps
Temperature Forecast
Maximum Temperature Forecast
Minimum Temperature Forecast
Dewpoint Forecast
Prevalent Weather
12Hr Probability of Precip.
Sky Cover
  Health Maps
UV Forecast
Air Quality
Peak Air Quality Index
  Weather Station
La Crosse Technology
 
 
Weather Underground PWS KPAMCMUR4
KPAMCMUR4 Dashboard
  Current Conditions [Select Refresh to Update]

Updated: 3:44am on 4/16/14

Currently:
26.4°

Clear
Clear

High: 28.5° 
(12:00am) 
Low: 26.4° 
(2:44am)
Wind: 0 mph from the NNW
Gust: 0 mph
Today's High Wind: 7 mph (12:48am)
Humidity: 77%
Pressure: 29.04 in  (Rising) 
Pressure Rate: 0.022 in/hr
Dew Point: 20.2°
Wind Chill: 26.4°
Heat Index (feels like): 30.2°
Comfort Level: Uncomfortably Cold
Temperature Rate:  -0.34°/hr
 
  5 Day Forecast
 
Wed Thu Fri Sat Sun
Clear Clear Clear Clear Clear
Partly Cloudy Clear Mostly Cloudy Partly Cloudy Partly Cloudy
50° 64° 64° 64° 73°
27° 34° 39° 28° 39°

  Records and Normals
 
Temperature Forecast Normal Record
High 50° 64° 88°
(2002)
Low 27° 42° 25°
(1950)
 
  Almanac
Sunrise:  
6:39am
Moonrise: 
9:43pm

Moon Phase:
100%

Sunset: 
7:58pm
Moonset:  
7:27am
 
  Weather Underground     KPAMCMUR4

  Weather Advisories
No Warning
Full Advisory Text...
  Weather Map

 
  Web Cams   (Northerly View)
Northerly view toward Pittsburgh.
 
  Rainfall Totals
Hourly Rain 0.00 in
Daily Rain 0.00 in
Monthly Rain 1.10 in
Yearly Rain 2.79 in
Normal Rain, month to date       2.02 in
Normal Rain, year to date 9.95 in
 
 
Weather.com
WeatherUnderground NorthEast Fronts
WeatherUnderground NorthEast Radar
WeatherBug NorthEast Radar
WeatherBug, Peters HS
WPXI Weather
KDKA Weather
WTEA Weather
Intellacast Canonsburg
AccuWeather
Yahoo, McMurray
Twitter, Pittsburgh
Fox53 Radar
Time and Date, Pittsburgh
NOAA Weather Pitt
FilghtStats PIT
NWS Thompsonville
USGS Tides and Temperature at Manasquan
NWS US Radar - Loop
  Local Weather Exchange Network
Station ID

City 
(Click for Map Location)

Neighborhood 
(Click for History)
Last Update (Date & Time)

Temperature
 (°)

Dew
Point (°)
Humidity 
(%)
Wind 
(mph)
from the Wind Gust 
(mph) 
Pressure (in) Hourly
Rain (in)
KPACANON4 Canonsburg Morgan's Point 04/16 03:29:39 23.0 20.0 89 0 ESE 0 30.01 0.00
KPAMCMUR4 McMurray Thompsonville-McMurray 04/16 03:35:12 26.6 21.0 78 0 NNW 0 29.03 0.00
KPAMCMUR3 McMurray St. Benedict the Abbot 04/16 03:39:14 25.3 21.0 83 0 NW 0 30.24 0.00
KPABRIDG2 Bridgeville Hunting Ridge 04/16 03:40:03 27.0 20.0 76 0 NNW 0 29.03 0.00
KPAEIGHT3 Eighty Four Nottingham Twp. 04/16 03:40:07 25.3 18.0 74 0 NNE 0 30.34 0.00
KPAVENET5 Venetia Willamar 04/16 03:34:07 23.5 20.0 88 2 NNW 0 --- 0.00
KPABRIDG1 Bridgeville Olde Orchard South Fayette Bridgeville 04/16 03:40:06 22.1 14.0 69 0 SSE 0 30.21 0.00
KPAVENET3 Venetia Venetia Neighborhood Weather 04/16 03:40:05 25.6 21.0 83 0 WNW 0 30.27 0.00
KPABETHE4 Bethel Park Bethel Park, PA - Terrasurv 04/16 03:39:14 24.9 22.0 88 0 NW 0 30.25 0.00
KPACUDDY2 Cuddy South Fayette Township - Cuddy 04/16 03:30:56 24.5 21.0 85 1 West 2 30.26 0.00
KPABETHE3 Bethel Park Bethel Park 04/16 03:35:16 25.2 22.0 86 0 North 1 30.26 0.00
KPAWASHI5 Washington Cameron Estates/South Strabane 04/16 03:29:04 23.7 19.0 83 2 SSW 0 30.23 0.00
KPAVENET4 Venetia Sugar Run Road 04/16 03:40:05 24.9 18.0 74 0 North 0 30.07 0.00
KPAMTLEB2 Mount Lebanon Mount Lebanon 04/16 03:40:03 26.1 8.0 46 0 South 0 30.20 0.00
KPASCOTT2 Scott Township Scott Township Neighborhood Weather 04/16 03:40:00 27.9 19.0 68 0 SSE 0 30.25 0.00
KPAPITTS50 Pittsburgh Dormont 04/16 03:40:04 26.4 21.0 80 0 North 0 30.05 0.00
KPAPITTS29 Pittsburgh Carrick/Pittsburgh 04/16 03:39:25 26.2 21.0 80 1 NW 1 30.25 0.00
KPACRAFT2 Crafton Bradford Court 04/16 03:40:03 27.9 27.0 95 0 North 0 30.57 0.00
KPAPITTS58 Pittsburgh Robinson Township 04/16 03:36:44 25.6 21.0 82 1 NNW 4 30.24 0.00
KPAIMPER5 Imperial Timberglen 04/16 03:40:07 25.9 21.0 80 0 South 0 30.16 0.00
KPAIMPER1 Imperial Imperial Neighborhood Weather 04/16 03:37:07 25.6 22.0 85 0 North 0 30.29 0.00
KPAIMPER4 Imperial Walden Woods 04/16 03:40:01 25.3 20.0 80 0 SSE 0 30.21 0.00
KPAPITTS46 Pittsburgh Baldwin 04/16 03:40:05 26.5 20.0 75 0 North 0 30.25 0.00
KPAPITTS62 Pittsburgh Crafton Heights 04/16 03:39:54 26.0 18.0 72 0 NNW 0 30.20 0.00
KPACLAIR2 Clairton Jefferson Hills 04/16 03:40:06 27.9 21.0 76 0 WNW 0 30.04 0.00
KPAWASHI2 Washington South Franklin, Alamae Lakes 04/16 03:35:07 24.2 21.0 87 0 NW 0 30.25 0.00
KPAMOON3 Moon Sonoma Ridge 04/16 03:35:54 25.6 20.0 78 1 WNW 6 30.28 0.00
KPABURGS2 Burgsttown Pa Burgettstown PA 04/16 03:35:32 21.0 20.0 94 0 West 0 30.18 0.00
KPACORAO3 Coraopolis Route 51 04/16 03:39:41 26.8 21.0 78 0 East 0 30.23 0.00
KPAPITTS68 Pittsburgh Carnegie Mellon University - Hamerschlag Hall 04/16 03:30:57 27.5 21.0 76 3 NW 11 29.15 0.00
KPAPITTS56 Pittsburgh Carnegie Mellon University 04/16 03:39:46 28.2 22.0 78 1 North 7 --- 0.00
KPAPITTS75 Pittsburgh Shadyside 04/16 03:32:07 29.5 22.0 75 2 NW 3 30.27 0.00
KPAPITTS33 Pittsburgh Squirrel Hill 04/16 03:40:00 30.8 0.0 61 0 North 0 29.46 0.00
KPAMONES3 Monessen Monessen City Park 04/16 03:40:05 26.1 23.0 87 0 SSE 0 30.07 0.00
KPAPITTS54 Pittsburgh Bloomfield 04/16 03:40:02 27.9 23.0 83 0 North 0 30.34 0.00
KPAMOONT2 Moon Township Moon Township 04/16 03:37:02 25.9 22.0 85 0 WNW 0 30.26 0.00
KPAPITTS63 Pittsburgh Bakery Square - Chicken Coop 04/16 03:30:53 27.0 26.0 98 4 ESE 0 30.17 0.00
KPAWHITE8 White Oak White Oak, PA 15131-1531 04/16 03:40:00 27.1 19.0 71 0 WNW 0 30.20 0.00
KPAMCKEE2 McKeesport Mckeesport 04/16 03:35:26 28.2 21.0 74 0 SE 1 30.27 0.00
KAFJ Washington Official Station 04/16 03:35:00 25.0 18.0 74 0 North --- 30.24 ---
  Full Advisory Text
No Warnings

4/16/14 4+ 3:44am   - http://weatherstation.wunderground.com/weatherstation/updateweatherstation.php?action=updateraw&ID=KPASMITH2&PASSWORD=&dateutc=2010-07-05+22%3A09%3A33&winddir=NNW&tempf=26.4&windspeedmph=0&humidity=77&dewptf=20.2&baromin=29.04&rainin=0.00&dailyrainin=0.00

Ambient Weather and Weather Underground
 Never base important decisions on this or any weather information obtained from the Internet
Updated Automatically by Ambient Weather's Virtual Weather Station  V14.00

Template updated: 5:35 PM 6/9/2011